Sierra Vista, AZ

6:33 PM MST on April 19, 2018 (GMT -0700)
Sierra Vista Municipal-Libby Army Air Field

Weather History for KFHU - December, 2012

Change the Weather History Date:

Wednesday, December 5, 2012

  Actual Average Record
Temperature  
Mean Temperature 58 °F -  
Max Temperature 73 °F 59 °F 78 °F (2007)
Min Temperature 44 °F 37 °F 26 °F (2011)
Degree Days  
Heating Degree Days 6    
Growing Degree Days 8 (Base 50)    
Moisture  
Dew Point 26 °F    
Average Humidity 30    
Maximum Humidity 53    
Minimum Humidity 15    
Precipitation  
Precipitation 0.00 in - - ()
Sea Level Pressure  
Sea Level Pressure 30.07 in    
Wind  
Wind Speed 4 mph (SSE)    
Max Wind Speed 12 mph    
Max Gust Speed -    
Visibility 10 miles    
Events      
Averages and records for this station are not official NWS values.
T = Trace of Precipitation, MM = Missing Value Source: NWS Daily Summary

Daily Weather History Graph

Daily Weather History Graph

Search for Another Location

Airport or City:

Astronomy

Dec. 05, 2012 Rise Set
Actual Time 7:06 AM MST 5:17 PM MST
Civil Twilight 6:40 AM MST 5:44 PM MST
Nautical Twilight 6:09 AM MST 6:14 PM MST
Astronomical Twilight 5:40 AM MST 6:44 PM MST
Moon 11:51 PM MST (12/5) 11:49 AM MST (12/5)
Length of Visible Light 11h 04m
Length of Day
10h 10m
Waning Gibbous, 59% of the Moon is Illuminated
Dec 5
Waning Gibbous
Dec 6
Last Quarter
Dec 13
New
Dec 19
First Quarter
Dec 28
Full

Hourly Weather History & Observations

Time (MST) Temp. Windchill Dew Point Humidity Pressure Visibility Wind Dir Wind Speed Gust Speed Precip Events Conditions
12:55 AM 51.8 °F - 30.2 °F 44% 30.15 in 10.0 mi ENE 4.6 mph - N/A   Scattered Clouds
1:55 AM 48.2 °F - 28.4 °F 46% 30.16 in 10.0 mi Calm Calm - N/A   Mostly Cloudy
2:55 AM 51.8 °F - 28.4 °F 41% 30.14 in 10.0 mi Calm Calm - N/A   Mostly Cloudy
3:55 AM 44.6 °F - 28.4 °F 53% 30.15 in 10.0 mi Calm Calm - N/A   Overcast
4:55 AM 46.4 °F 45.2 °F 28.4 °F 50% 30.14 in 10.0 mi SSE 3.5 mph - N/A   Overcast
5:55 AM 50.0 °F - 28.4 °F 43% 30.15 in 10.0 mi Calm Calm - N/A   Overcast
7:55 AM 46.4 °F - 28.4 °F 50% 30.19 in 10.0 mi Calm Calm - N/A   Mostly Cloudy
8:55 AM 55.4 °F - 28.4 °F 36% 30.17 in 10.0 mi NE 4.6 mph - N/A   Mostly Cloudy
9:55 AM 60.8 °F - 28.4 °F 29% 30.15 in 10.0 mi East 5.8 mph - N/A   Mostly Cloudy
10:55 AM 64.4 °F - 30.2 °F 28% 30.12 in 10.0 mi East 9.2 mph - N/A   Mostly Cloudy
11:55 AM 68.0 °F - 28.4 °F 23% 30.09 in 10.0 mi SE 9.2 mph - N/A   Mostly Cloudy
12:55 PM 69.8 °F - 28.4 °F 21% 30.05 in 10.0 mi ESE 8.1 mph - N/A   Mostly Cloudy
1:55 PM 71.6 °F - 24.8 °F 17% 30.02 in 10.0 mi Calm Calm - N/A   Mostly Cloudy
2:55 PM 73.4 °F - 24.8 °F 16% 30.00 in 10.0 mi Calm Calm - N/A   Mostly Cloudy
3:55 PM 73.4 °F - 23.0 °F 15% 30.00 in 10.0 mi SE 4.6 mph - N/A   Mostly Cloudy
4:55 PM 71.6 °F - 23.0 °F 16% 30.00 in 10.0 mi SE 4.6 mph - N/A   Mostly Cloudy
5:55 PM 62.6 °F - 24.8 °F 24% 30.01 in 10.0 mi SW 8.1 mph - N/A   Mostly Cloudy
6:55 PM 60.8 °F - 14.0 °F 16% 30.02 in 10.0 mi South 9.2 mph - N/A   Scattered Clouds
7:55 PM 60.8 °F - 19.4 °F 20% 30.03 in 10.0 mi WSW 6.9 mph - N/A   Scattered Clouds
8:55 PM 60.8 °F - 21.2 °F 22% 30.01 in 10.0 mi West 8.1 mph - N/A   Scattered Clouds
9:55 PM 57.2 °F - 23.0 °F 27% 30.00 in 10.0 mi WSW 9.2 mph - N/A   Partly Cloudy
10:55 PM 57.2 °F - 24.8 °F 29% 29.98 in 10.0 mi West 11.5 mph - N/A   Partly Cloudy
11:55 PM 55.4 °F - 24.8 °F 31% 29.98 in 10.0 mi West 10.4 mph - N/A   Partly Cloudy